User: anonymous   Login
Location: Unspecified
(0.0000°N, 0.0000°E)
Time: 13:37:01
(UTC+00:00)
Language:

MERIDIAN 2 - Orbit

View from above orbital plane
View from above orbital plane
View from above satellite
View from above satellite

Ground track
Ground track

The orbit data is extracted from the following two-line orbital elements,

1 35008U 09029A   18348.06716117  .00000264  00000-0  56650-3 0  9996
2 35008  63.7463 309.1896 7254391 250.0984  23.6522  2.24543038 78299
Epoch (UTC): 14 December 2018 01:36:42
Eccentricity: 0.7254391
inclination: 63.7463°
perigee height: 385 km
apogee height: 36126 km
right ascension of ascending node: 309.1896°
argument of perigee: 250.0984°
revolutions per day: 2.24543038
mean anomaly at epoch: 23.6522°
orbit number at epoch: 7829

The dashed part of the orbit path shows where the satellite is in the earth's shadow,  

DLR